Flag for Germany Weather past 2 weeks in Neunkirchen (Saar), Saarland, Germany

Now
75 °F

Partly sunny.


Feels Like: 78 °F
Forecast: 60 / 67 °F
Wind: 5 mph from North

Location: Saarbruecken / Ensheim

Current Time: Jul 28, 2014 at 1:34:16 PM

Latest Report: Jul 28, 2014 at 1:20 PM


Visibility: N/A

Pressure: 29.86 "Hg

Humidity: 57%

Dew point: 59 °F

Location of Neunkirchen (Saar)Location

Historic Weather in Neunkirchen (Saar) — Graph

°F

Neunkirchen (Saar) temperature yesterday

Maximum temperature yesterday: 79 °F (at 2:20 PM)
Minimum temperature yesterday: 59 °F (at 4:50 AM)
Average temperature yesterday: 69 °F

Past Weeks' High & Low Weather Summary

 TemperatureHumidityPressure
High90 °F (Jul 18, 5:20 PM)100% (Jul 14, 2:20 AM)30.21 "Hg (Jul 14, 2:20 AM)
Low55 °F (Jul 15, 5:20 AM)27% (Jul 18, 6:20 PM)29.83 "Hg (Jul 13, 3:20 PM)
Average70 °F67%29.99 "Hg
* Reported Jul 13 12:20 PM — Jul 28 12:20 PM, Neunkirchen (Saar), Weather by CustomWeather, © 2014

Note: Actual official high and low records may vary slightly from our data, if they occured in-between our weather recording intervals... More about our weather records

Advertising

Neunkirchen (Saar) weather history for previous 24 hours

 ConditionsComfort  
Time TempWeatherWind HumidityBarometerVisibility
12:20 PM
Jul 28
72 °FPartly sunny.5 mph65%29.89 "HgN/A
11:50 AM72 °FPartly sunny.6 mph65%29.89 "HgN/A
11:20 AM72 °FBroken clouds.6 mph65%29.89 "HgN/A
10:50 AM72 °FBroken clouds.5 mph69%29.89 "HgN/A
10:20 AM73 °FPassing clouds.5 mph65%29.89 "HgN/A
9:50 AM70 °FPassing clouds.3 mph73%29.89 "HgN/A
9:20 AM68 °FPassing clouds.5 mph73%29.92 "HgN/A
8:50 AM66 °FPassing clouds.3 mph83%29.92 "HgN/A
8:20 AM64 °FSunny.5 mph83%29.92 "Hg10 mi
7:50 AM64 °FSunny.1 mph83%29.92 "Hg10 mi
7:20 AM63 °FSunny.1 mph83%29.92 "Hg10 mi
6:50 AM61 °FClear.5 mph88%29.92 "Hg10 mi
6:20 AM59 °FFog.3 mph94%29.92 "HgN/A
5:50 AM59 °FFog.5 mph94%29.92 "HgN/A
5:20 AM59 °FClear.2 mph94%29.92 "Hg10 mi
4:20 AM59 °FClear.2 mph88%29.92 "Hg10 mi
3:50 AM61 °FPassing clouds.3 mph88%29.95 "HgN/A
3:20 AM61 °FClear.3 mph88%29.95 "Hg10 mi
2:50 AM61 °FClear.No wind88%29.95 "Hg10 mi
2:20 AM63 °FClear.2 mph83%29.95 "Hg10 mi
1:20 AM64 °FClear.2 mph78%29.98 "Hg10 mi
12:50 AM64 °FClear.2 mph78%29.98 "Hg10 mi
12:20 AM64 °FClear.2 mph78%29.98 "Hg10 mi
11:50 PM
Jul 27
64 °FClear.2 mph78%29.98 "Hg10 mi
11:20 PM66 °FClear.No wind73%29.98 "Hg10 mi
10:50 PM66 °FClear.No wind73%30.01 "Hg10 mi
10:20 PM68 °FClear.1 mph69%30.01 "Hg10 mi
9:50 PM70 °FSunny.3 mph64%30.01 "Hg10 mi
9:20 PM72 °FSunny.3 mph61%29.98 "Hg10 mi
8:50 PM73 °FPartly sunny.6 mph57%29.98 "HgN/A
8:20 PM75 °FPartly sunny.7 mph50%29.98 "HgN/A
7:50 PM77 °FPartly sunny.7 mph44%29.98 "HgN/A
7:20 PM77 °FPartly sunny.7 mph47%29.98 "HgN/A
6:50 PM79 °FPassing clouds.6 mph45%29.98 "HgN/A
6:20 PM79 °FPartly sunny.5 mph45%29.98 "HgN/A
5:50 PM79 °FPartly sunny.8 mph48%29.98 "HgN/A
5:20 PM79 °FPassing clouds.9 mph45%29.98 "HgN/A
4:20 PM79 °FPartly sunny.8 mph42%30.01 "HgN/A
3:50 PM79 °FPartly sunny.7 mph48%30.01 "HgN/A
3:20 PM79 °FScattered clouds.7 mph45%30.01 "HgN/A
2:50 PM79 °FPassing clouds.8 mph48%30.01 "HgN/A
2:20 PM79 °FPassing clouds.7 mph48%30.01 "HgN/A
1:50 PM77 °FPassing clouds.8 mph54%30.04 "HgN/A
1:20 PM77 °FPassing clouds.7 mph51%30.01 "HgN/A
Weather by CustomWeather, © 2014

See weather overviewHow to use our weather pages